User: anonymous   Login
Location: Unspecified
(0.0000°N, 0.0000°E)
Time: 12:18:37
(UTC+00:00)
Language:

N. Korean satellite - Orbit

View from above orbital plane
View from above orbital plane
View from above satellite
View from above satellite

Ground track
Ground track

The orbit data is extracted from the following two-line orbital elements,

1 39026U 12072A   18348.95225047 +.00001479 +00000-0 +56792-4 0  9994
2 39026 097.2097 353.2186 0039861 043.2579 317.1779 15.27283853333188
Epoch (UTC): 14 December 2018 22:51:14
Eccentricity: 0.0039861
inclination: 97.2097°
perigee height: 456 km
apogee height: 511 km
right ascension of ascending node: 353.2186°
argument of perigee: 43.2579°
revolutions per day: 15.27283853
mean anomaly at epoch: 317.1779°
orbit number at epoch: 33318

The dashed part of the orbit path shows where the satellite is in the earth's shadow,  

DLR